Location: Haliburton Scout Reserve
(45.0900°N, 78.3200°W)
Time: 20:44:57
(UTC-05:00)

Tiangong - Visible Passes

Search period start: 26 November 2022 00:00
Search period end: 06 December 2022 00:00
Orbit: 387 x 394 km, 41.5° (Epoch: 26 November)

Date Brightness Start Highest point End Pass type
(mag) Time Alt. Az. Time Alt. Az. Time Alt. Az.
28 Nov 0.6 18:35:12 10° S 18:35:37 11° S 18:35:37 11° S visible
29 Nov 1.1 19:12:45 10° SW 19:13:00 11° SW 19:13:00 11° SW visible
30 Nov -0.3 18:15:23 10° SSW 18:17:50 20° SSE 18:17:57 20° SSE visible
01 Dec 0.3 17:18:20 10° S 17:20:08 14° SSE 17:21:57 10° ESE visible
01 Dec 0.1 18:53:36 10° WSW 18:55:10 23° SW 18:55:10 23° SW visible
02 Dec -0.7 17:55:57 10° SW 17:58:45 29° SSE 18:00:00 22° SE visible
03 Dec -1.0 18:34:29 10° WSW 18:37:07 39° SSW 18:37:07 39° SSW visible
04 Dec -1.0 17:36:38 10° WSW 17:39:37 37° S 17:41:53 15° ESE visible
04 Dec 0.9 19:13:16 10° WSW 19:14:12 17° WSW 19:14:12 17° WSW visible
05 Dec -1.3 18:15:17 10° WSW 18:18:20 43° S 18:18:57 37° SSE visible
